When you browse on this site, cookies collect data to enhance your experience and personalize the content and advertising you see.
Visit our Privacy Policy to learn more. By continuing to use the site, you agree to this use of cookies and data.
  • In Hungary
  • List of Countries
  • For 7 days
  • Water Temperature
  • Weather Map
  • News
  • Weather Widgets
  • user-avatar
    Login

    Hourly Weather Velletri

    Today, 10 December, Tuesday

    Time Temperature Precipitation Wind Pressure Humidity
    00:00 +10°C° 0.1 mm 1 mps 734 mmHg 76%
    01:00 +10°C° 0 mm 1 mps 734 mmHg 74%
    02:00 +10°C° 0 mm 1 mps 734 mmHg 74%
    03:00 +9°C° 0 mm 1 mps 733 mmHg 74%
    04:00 +9°C° 0 mm 1 mps 733 mmHg 75%
    05:00 +8°C° 0 mm 2 mps 733 mmHg 75%
    06:00 +8°C° 0 mm 2 mps 734 mmHg 75%
    07:00 +7°C° 0 mm 2 mps 734 mmHg 75%
    08:00 +8°C° 0 mm 2 mps 735 mmHg 72%
    09:00 +10°C° 0 mm 2 mps 735 mmHg 69%
    10:00 +11°C° 0 mm 3 mps 735 mmHg 65%
    11:00 +12°C° 0 mm 3 mps 736 mmHg 61%
    12:00 +13°C° 0 mm 4 mps 736 mmHg 57%
    13:00 +14°C° 0 mm 4 mps 736 mmHg 52%
    14:00 +13°C° 0 mm 4 mps 736 mmHg 54%
    15:00 +12°C° 0 mm 4 mps 736 mmHg 56%
    16:00 +11°C° 0 mm 4 mps 736 mmHg 59%
    17:00 +10°C° 0 mm 4 mps 737 mmHg 61%
    18:00 +8°C° 0 mm 4 mps 737 mmHg 63%
    19:00 +7°C° 0 mm 4 mps 738 mmHg 65%
    20:00 +7°C° 0 mm 4 mps 738 mmHg 67%
    21:00 +6°C° 0 mm 4 mps 739 mmHg 68%
    22:00 +6°C° 0 mm 4 mps 739 mmHg 70%
    23:00 +7°C° 0 mm 3 mps 739 mmHg 70%

    Tomorrow, 11 December, Wednesday

    Time Temperature Precipitation Wind Pressure Humidity
    00:00 +5°C° 0 mm 3 mps 739 mmHg 70%
    01:00 +5°C° 0 mm 3 mps 739 mmHg 71%
    02:00 +5°C° 0 mm 3 mps 739 mmHg 70%
    03:00 +4°C° 0 mm 3 mps 738 mmHg 69%
    04:00 +4°C° 0 mm 3 mps 738 mmHg 68%
    05:00 +4°C° 0 mm 3 mps 738 mmHg 67%
    06:00 +3°C° 0 mm 3 mps 738 mmHg 67%
    07:00 +4°C° 0 mm 2 mps 738 mmHg 66%
    08:00 +5°C° 0 mm 2 mps 738 mmHg 61%
    09:00 +6°C° 0 mm 2 mps 738 mmHg 57%
    10:00 +9°C° 0 mm 1 mps 738 mmHg 53%
    11:00 +10°C° 0 mm 1 mps 738 mmHg 52%
    12:00 +11°C° 0 mm 1 mps 737 mmHg 51%
    13:00 +12°C° 0 mm 1 mps 737 mmHg 50%
    14:00 +11°C° 0 mm 1 mps 737 mmHg 54%
    15:00 +10°C° 0 mm 1 mps 736 mmHg 59%
    16:00 +10°C° 0 mm 1 mps 736 mmHg 63%
    17:00 +9°C° 0 mm 1 mps 736 mmHg 65%
    18:00 +8°C° 0 mm 1 mps 736 mmHg 67%
    19:00 +7°C° 0 mm 1 mps 736 mmHg 69%
    20:00 +7°C° 0 mm 1 mps 736 mmHg 70%
    21:00 +7°C° 0 mm 1 mps 736 mmHg 71%
    22:00 +7°C° 0 mm 1 mps 735 mmHg 72%
    23:00 +6°C° 0 mm 1 mps 735 mmHg 73%

    Day after tomorrow, 12 December, Thursday

    Time Temperature Precipitation Wind Pressure Humidity
    00:00 +6°C° 0 mm 1 mps 735 mmHg 74%
    01:00 +6°C° 0 mm 1 mps 735 mmHg 74%
    02:00 +6°C° 0.1 mm 1 mps 734 mmHg 74%
    03:00 +7°C° 0.1 mm 1 mps 733 mmHg 73%
    04:00 +6°C° 0.1 mm 2 mps 733 mmHg 73%
    05:00 +6°C° 0 mm 2 mps 733 mmHg 73%
    06:00 +6°C° 0 mm 2 mps 733 mmHg 74%
    07:00 +6°C° 0 mm 2 mps 733 mmHg 74%
    08:00 +8°C° 0 mm 1 mps 733 mmHg 74%
    09:00 +8°C° 0 mm 1 mps 733 mmHg 73%
    10:00 +7°C° 0 mm 0 mps 733 mmHg 73%
    11:00 +9°C° 0 mm 1 mps 733 mmHg 73%
    12:00 +9°C° 0 mm 1 mps 733 mmHg 73%
    13:00 +8°C° 0 mm 2 mps 732 mmHg 73%
    14:00 +9°C° 0 mm 2 mps 732 mmHg 72%
    15:00 +9°C° 0 mm 2 mps 732 mmHg 71%
    16:00 +9°C° 0 mm 2 mps 732 mmHg 71%
    17:00 +8°C° 0 mm 2 mps 733 mmHg 72%
    18:00 +8°C° 0 mm 2 mps 733 mmHg 73%
    19:00 +8°C° 0 mm 1 mps 733 mmHg 75%
    20:00 +8°C° 0 mm 1 mps 733 mmHg 75%
    21:00 +8°C° 0 mm 1 mps 733 mmHg 75%
    22:00 +8°C° 0 mm 1 mps 733 mmHg 75%
    23:00 +8°C° 0 mm 1 mps 733 mmHg 76%

    13 December, Friday

    Time Temperature Precipitation Wind Pressure Humidity
    00:00 +7°C° 0 mm 1 mps 733 mmHg 77%
    01:00 +7°C° 0 mm 1 mps 733 mmHg 78%
    02:00 +7°C° 0 mm 1 mps 732 mmHg 78%
    03:00 +7°C° 0 mm 1 mps 732 mmHg 78%
    04:00 +6°C° 0 mm 1 mps 732 mmHg 78%
    05:00 +6°C° 0 mm 1 mps 731 mmHg 77%
    06:00 +6°C° 0 mm 2 mps 731 mmHg 76%
    07:00 +6°C° 0 mm 2 mps 730 mmHg 75%
    08:00 +5°C° 0.1 mm 3 mps 729 mmHg 76%
    09:00 +6°C° 0.1 mm 4 mps 729 mmHg 76%
    10:00 +7°C° 0.1 mm 5 mps 728 mmHg 76%
    11:00 +7°C° 2 mm 6 mps 727 mmHg 82%
    12:00 +8°C° 2 mm 6 mps 725 mmHg 87%
    13:00 +8°C° 2 mm 7 mps 724 mmHg 93%
    14:00 +9°C° 2.4 mm 8 mps 723 mmHg 89%
    15:00 +10°C° 2.4 mm 8 mps 722 mmHg 86%
    16:00 +11°C° 2.4 mm 8 mps 721 mmHg 82%
    17:00 +10°C° 1.1 mm 8 mps 721 mmHg 81%
    18:00 +10°C° 1.1 mm 8 mps 721 mmHg 79%
    19:00 +9°C° 1.1 mm 8 mps 721 mmHg 78%
    20:00 +9°C° 0.4 mm 7 mps 721 mmHg 75%
    21:00 +8°C° 0.4 mm 6 mps 721 mmHg 72%
    22:00 +7°C° 0.4 mm 5 mps 721 mmHg 69%
    23:00 +7°C° 0.1 mm 5 mps 722 mmHg 71%

    14 December, Saturday

    Time Temperature Precipitation Wind Pressure Humidity
    00:00 +6°C° 0.1 mm 5 mps 723 mmHg 73%
    01:00 +6°C° 0.1 mm 5 mps 723 mmHg 75%
    02:00 +5°C° 0 mm 5 mps 724 mmHg 76%
    03:00 +5°C° 0 mm 5 mps 725 mmHg 78%
    04:00 +5°C° 0 mm 4 mps 725 mmHg 79%
    05:00 +5°C° 0 mm 4 mps 726 mmHg 78%
    06:00 +4°C° 0 mm 4 mps 727 mmHg 77%
    07:00 +4°C° 0 mm 4 mps 728 mmHg 77%
    08:00 +5°C° 0 mm 4 mps 729 mmHg 74%
    09:00 +6°C° 0 mm 4 mps 730 mmHg 71%
    10:00 +7°C° 0 mm 4 mps 731 mmHg 69%
    11:00 +8°C° 0 mm 4 mps 732 mmHg 65%
    12:00 +10°C° 0 mm 3 mps 732 mmHg 61%
    13:00 +12°C° 0 mm 3 mps 733 mmHg 57%
    14:00 +12°C° 0 mm 2 mps 733 mmHg 61%
    15:00 +12°C° 0 mm 2 mps 734 mmHg 64%
    16:00 +11°C° 0 mm 1 mps 735 mmHg 68%
    17:00 +10°C° 0 mm 1 mps 735 mmHg 68%
    18:00 +10°C° 0 mm 1 mps 736 mmHg 69%
    19:00 +8°C° 0 mm 0 mps 736 mmHg 69%
    20:00 +9°C° 0 mm 1 mps 737 mmHg 69%
    21:00 +9°C° 0 mm 1 mps 737 mmHg 68%
    22:00 +9°C° 0 mm 1 mps 738 mmHg 68%
    23:00 +9°C° 0 mm 1 mps 738 mmHg 68%

    15 December, Sunday

    Time Temperature Precipitation Wind Pressure Humidity
    00:00 +9°C° 0 mm 1 mps 738 mmHg 68%
    01:00 +9°C° 0 mm 1 mps 738 mmHg 68%
    02:00 +9°C° 0 mm 1 mps 738 mmHg 69%
    03:00 +9°C° 0 mm 1 mps 738 mmHg 70%
    04:00 +9°C° 0 mm 2 mps 739 mmHg 71%
    05:00 +9°C° 0 mm 2 mps 739 mmHg 72%
    06:00 +9°C° 0 mm 2 mps 739 mmHg 74%
    07:00 +9°C° 0 mm 2 mps 739 mmHg 76%
    08:00 +10°C° 0 mm 2 mps 740 mmHg 77%
    09:00 +12°C° 0 mm 2 mps 740 mmHg 78%
    10:00 +13°C° 0 mm 2 mps 741 mmHg 78%
    11:00 +13°C° 0 mm 3 mps 741 mmHg 77%
    12:00 +13°C° 0 mm 3 mps 741 mmHg 75%
    13:00 +14°C° 0 mm 3 mps 741 mmHg 74%
    14:00 +14°C° 0 mm 3 mps 741 mmHg 76%
    15:00 +13°C° 0 mm 3 mps 741 mmHg 78%
    16:00 +12°C° 0 mm 4 mps 741 mmHg 81%
    17:00 +12°C° 0 mm 4 mps 741 mmHg 82%
    18:00 +11°C° 0 mm 4 mps 741 mmHg 83%
    19:00 +11°C° 0 mm 4 mps 741 mmHg 84%
    20:00 +11°C° 0 mm 3 mps 742 mmHg 85%
    21:00 +11°C° 0 mm 3 mps 742 mmHg 85%
    22:00 +11°C° 0 mm 3 mps 742 mmHg 86%
    23:00 +11°C° 0 mm 3 mps 742 mmHg 87%
    Show more